owner,sensor,date,latitude,longitude,vertical_datum,sea_water_practical_salinity,qcFlag 
DISL,ioos:station:DISL:MHPA:1,2009-04-01T00:00:00Z,30.6671,-87.9365,5.074,0.05,1111122 
DISL,ioos:station:DISL:MHPA:1,2009-04-01T00:30:00Z,30.6671,-87.9365,5.034,0.05,1111122 
DISL,ioos:station:DISL:MHPA:1,2009-04-01T01:00:00Z,30.6671,-87.9365,4.902,0.05,1111122 
DISL,ioos:station:DISL:MHPA:1,2009-04-01T01:30:00Z,30.6671,-87.9365,4.819,0.05,1111122 
DISL,ioos:station:DISL:MHPA:1,2009-04-01T02:00:00Z,30.6671,-87.9365,4.642,0.05,1111122 
DISL,ioos:station:DISL:MHPA:1,2009-04-01T02:30:00Z,30.6671,-87.9365,4.502,0.05,1111122 
DISL,ioos:station:DISL:MHPA:1,2009-04-01T03:00:00Z,30.6671,-87.9365,4.342,0.05,1111122 
DISL,ioos:station:DISL:MHPA:1,2009-04-01T03:30:00Z,30.6671,-87.9365,4.235,0.05,1111122 
DISL,ioos:station:DISL:MHPA:1,2009-04-01T04:00:00Z,30.6671,-87.9365,4.126,0.05,1111122 
DISL,ioos:station:DISL:MHPA:1,2009-04-01T04:30:00Z,30.6671,-87.9365,3.995,0.05,1111122 
DISL,ioos:station:DISL:MHPA:1,2009-04-01T05:00:00Z,30.6671,-87.9365,3.919,0.05,1111122 
DISL,ioos:station:DISL:MHPA:1,2009-04-01T05:30:00Z,30.6671,-87.9365,3.855,0.05,1111122 
DISL,ioos:station:DISL:MHPA:1,2009-04-01T06:00:00Z,30.6671,-87.9365,3.772,0.05,1111122 
DISL,ioos:station:DISL:MHPA:1,2009-04-01T06:30:00Z,30.6671,-87.9365,3.67,0.05,1111122 
DISL,ioos:station:DISL:MHPA:1,2009-04-01T07:00:00Z,30.6671,-87.9365,3.624,0.05,1111122 
DISL,ioos:station:DISL:MHPA:1,2009-04-01T07:30:00Z,30.6671,-87.9365,3.556,0.05,1111122 
DISL,ioos:station:DISL:MHPA:1,2009-04-01T08:00:00Z,30.6671,-87.9365,3.478,0.05,1111122 
DISL,ioos:station:DISL:MHPA:1,2009-04-01T08:30:00Z,30.6671,-87.9365,3.406,0.05,1111122 
DISL,ioos:station:DISL:MHPA:1,2009-04-01T09:00:00Z,30.6671,-87.9365,3.366,0.06,1111122 
DISL,ioos:station:DISL:MHPA:1,2009-04-01T09:30:00Z,30.6671,-87.9365,3.319,0.06,1111122 
DISL,ioos:station:DISL:MHPA:1,2009-04-01T10:00:00Z,30.6671,-87.9365,3.269,0.06,1111122 
DISL,ioos:station:DISL:MHPA:1,2009-04-01T10:30:00Z,30.6671,-87.9365,3.192,0.06,1111122 
DISL,ioos:station:DISL:MHPA:1,2009-04-01T11:00:00Z,30.6671,-87.9365,3.122,0.06,1111122 
DISL,ioos:station:DISL:MHPA:1,2009-04-01T11:30:00Z,30.6671,-87.9365,3.061,0.05,1111122 
DISL,ioos:station:DISL:MHPA:1,2009-04-01T12:00:00Z,30.6671,-87.9365,2.994,0.05,1111122 
DISL,ioos:station:DISL:MHPA:1,2009-04-01T12:30:00Z,30.6671,-87.9365,2.957,0.05,1111122 
DISL,ioos:station:DISL:MHPA:1,2009-04-01T13:00:00Z,30.6671,-87.9365,2.922,0.05,1111122 
DISL,ioos:station:DISL:MHPA:1,2009-04-01T13:30:00Z,30.6671,-87.9365,2.882,0.05,1111122 
DISL,ioos:station:DISL:MHPA:1,2009-04-01T14:00:00Z,30.6671,-87.9365,2.842,0.06,1111122 
DISL,ioos:station:DISL:MHPA:1,2009-04-01T14:30:00Z,30.6671,-87.9365,2.886,0.05,1111122 
DISL,ioos:station:DISL:MHPA:1,2009-04-01T15:00:00Z,30.6671,-87.9365,3.02,0.05,1111122 
DISL,ioos:station:DISL:MHPA:1,2009-04-01T15:30:00Z,30.6671,-87.9365,3.164,0.05,1111122 
DISL,ioos:station:DISL:MHPA:1,2009-04-01T16:00:00Z,30.6671,-87.9365,3.198,0.05,1111122 
DISL,ioos:station:DISL:MHPA:1,2009-04-01T16:30:00Z,30.6671,-87.9365,3.288,0.05,1111122 
DISL,ioos:station:DISL:MHPA:1,2009-04-01T17:00:00Z,30.6671,-87.9365,3.506,0.05,1111122 
DISL,ioos:station:DISL:MHPA:1,2009-04-01T17:30:00Z,30.6671,-87.9365,3.548,0.05,1111122 
DISL,ioos:station:DISL:MHPA:1,2009-04-01T18:00:00Z,30.6671,-87.9365,3.791,0.05,1111122 
DISL,ioos:station:DISL:MHPA:1,2009-04-01T18:30:00Z,30.6671,-87.9365,4.079,0.05,1111122 
DISL,ioos:station:DISL:MHPA:1,2009-04-01T19:00:00Z,30.6671,-87.9365,4.357,0.05,1111122 
DISL,ioos:station:DISL:MHPA:1,2009-04-01T19:30:00Z,30.6671,-87.9365,4.692,0.05,1111122 
DISL,ioos:station:DISL:MHPA:1,2009-04-01T20:00:00Z,30.6671,-87.9365,4.847,0.05,1111122 
DISL,ioos:station:DISL:MHPA:1,2009-04-01T20:30:00Z,30.6671,-87.9365,5.045,0.05,1111122 
DISL,ioos:station:DISL:MHPA:1,2009-04-01T21:00:00Z,30.6671,-87.9365,5.153,0.05,1111122 
DISL,ioos:station:DISL:MHPA:1,2009-04-01T21:30:00Z,30.6671,-87.9365,5.193,0.05,1111122 
DISL,ioos:station:DISL:MHPA:1,2009-04-01T22:00:00Z,30.6671,-87.9365,5.247,0.05,1111122 
DISL,ioos:station:DISL:MHPA:1,2009-04-01T22:30:00Z,30.6671,-87.9365,5.227,0.05,1111122 
DISL,ioos:station:DISL:MHPA:1,2009-04-01T23:00:00Z,30.6671,-87.9365,5.222,0.05,1111122 
DISL,ioos:station:DISL:MHPA:1,2009-04-01T23:30:00Z,30.6671,-87.9365,5.188,0.05,1111122 
DISL,ioos:station:DISL:MHPA:1,2009-04-02T00:00:00Z,30.6671,-87.9365,5.136,0.05,1111122 
DISL,ioos:station:DISL:MHPA:1,2009-04-02T00:30:00Z,30.6671,-87.9365,5.058,0.05,1111122 
DISL,ioos:station:DISL:MHPA:1,2009-04-02T01:00:00Z,30.6671,-87.9365,4.992,0.05,1111122 
DISL,ioos:station:DISL:MHPA:1,2009-04-02T01:30:00Z,30.6671,-87.9365,4.879,0.05,1111122 
DISL,ioos:station:DISL:MHPA:1,2009-04-02T02:00:00Z,30.6671,-87.9365,4.727,0.05,1111122 
DISL,ioos:station:DISL:MHPA:1,2009-04-02T02:30:00Z,30.6671,-87.9365,4.632,0.05,1111122 
DISL,ioos:station:DISL:MHPA:1,2009-04-02T03:00:00Z,30.6671,-87.9365,4.5,0.05,1111122 
DISL,ioos:station:DISL:MHPA:1,2009-04-02T03:30:00Z,30.6671,-87.9365,4.365,0.05,1111122 
DISL,ioos:station:DISL:MHPA:1,2009-04-02T04:00:00Z,30.6671,-87.9365,4.246,0.05,1111122 
DISL,ioos:station:DISL:MHPA:1,2009-04-02T04:30:00Z,30.6671,-87.9365,4.167,0.05,1111122 
DISL,ioos:station:DISL:MHPA:1,2009-04-02T05:00:00Z,30.6671,-87.9365,4.082,0.05,1111122 
DISL,ioos:station:DISL:MHPA:1,2009-04-02T05:30:00Z,30.6671,-87.9365,4.031,0.05,1111122 
DISL,ioos:station:DISL:MHPA:1,2009-04-02T06:00:00Z,30.6671,-87.9365,4.051,0.05,1111122 
DISL,ioos:station:DISL:MHPA:1,2009-04-02T06:30:00Z,30.6671,-87.9365,4.034,0.05,1111122 
DISL,ioos:station:DISL:MHPA:1,2009-04-02T07:00:00Z,30.6671,-87.9365,3.94,0.05,1111122 
DISL,ioos:station:DISL:MHPA:1,2009-04-02T07:30:00Z,30.6671,-87.9365,3.854,0.05,1111122 
DISL,ioos:station:DISL:MHPA:1,2009-04-02T08:00:00Z,30.6671,-87.9365,3.758,0.05,1111122 
DISL,ioos:station:DISL:MHPA:1,2009-04-02T08:30:00Z,30.6671,-87.9365,3.641,0.05,1111122 
DISL,ioos:station:DISL:MHPA:1,2009-04-02T09:00:00Z,30.6671,-87.9365,3.562,0.05,1111122 
DISL,ioos:station:DISL:MHPA:1,2009-04-02T09:30:00Z,30.6671,-87.9365,3.553,0.05,1111122 
DISL,ioos:station:DISL:MHPA:1,2009-04-02T10:00:00Z,30.6671,-87.9365,3.558,0.05,1111122 
DISL,ioos:station:DISL:MHPA:1,2009-04-02T10:30:00Z,30.6671,-87.9365,3.589,0.05,1111122 
DISL,ioos:station:DISL:MHPA:1,2009-04-02T11:00:00Z,30.6671,-87.9365,3.704,0.05,1111122 
DISL,ioos:station:DISL:MHPA:1,2009-04-02T11:30:00Z,30.6671,-87.9365,3.864,0.06,1111122 
DISL,ioos:station:DISL:MHPA:1,2009-04-02T12:00:00Z,30.6671,-87.9365,3.743,0.06,1111122 
DISL,ioos:station:DISL:MHPA:1,2009-04-02T12:30:00Z,30.6671,-87.9365,3.665,0.05,1111122 
DISL,ioos:station:DISL:MHPA:1,2009-04-02T13:00:00Z,30.6671,-87.9365,3.662,0.05,1111122 
DISL,ioos:station:DISL:MHPA:1,2009-04-02T13:30:00Z,30.6671,-87.9365,3.931,0.06,1111122 
DISL,ioos:station:DISL:MHPA:1,2009-04-02T14:00:00Z,30.6671,-87.9365,4.189,0.06,1111122 
DISL,ioos:station:DISL:MHPA:1,2009-04-02T14:30:00Z,30.6671,-87.9365,4.246,0.06,1111122 
DISL,ioos:station:DISL:MHPA:1,2009-04-02T15:00:00Z,30.6671,-87.9365,4.546,0.06,1111122 
DISL,ioos:station:DISL:MHPA:1,2009-04-02T15:30:00Z,30.6671,-87.9365,4.491,0.06,1111122 
DISL,ioos:station:DISL:MHPA:1,2009-04-02T16:00:00Z,30.6671,-87.9365,4.676,0.06,1111122 
DISL,ioos:station:DISL:MHPA:1,2009-04-02T16:30:00Z,30.6671,-87.9365,4.914,0.06,1111122 
DISL,ioos:station:DISL:MHPA:1,2009-04-02T17:00:00Z,30.6671,-87.9365,5.167,0.05,1111122 
DISL,ioos:station:DISL:MHPA:1,2009-04-02T17:30:00Z,30.6671,-87.9365,5.054,0.05,1111122 
DISL,ioos:station:DISL:MHPA:1,2009-04-02T18:00:00Z,30.6671,-87.9365,4.777,0.05,1111122 
DISL,ioos:station:DISL:MHPA:1,2009-04-02T18:30:00Z,30.6671,-87.9365,4.831,0.05,1111122 
DISL,ioos:station:DISL:MHPA:1,2009-04-02T19:00:00Z,30.6671,-87.9365,5.395,0.05,1111122 
DISL,ioos:station:DISL:MHPA:1,2009-04-02T19:30:00Z,30.6671,-87.9365,5.506,0.05,1111122 
DISL,ioos:station:DISL:MHPA:1,2009-04-02T20:00:00Z,30.6671,-87.9365,5.979,0.05,1111122 
DISL,ioos:station:DISL:MHPA:1,2009-04-02T20:30:00Z,30.6671,-87.9365,6.287,0.05,1111122 
DISL,ioos:station:DISL:MHPA:1,2009-04-02T21:00:00Z,30.6671,-87.9365,6.239,0.05,1111122 
DISL,ioos:station:DISL:MHPA:1,2009-04-02T21:30:00Z,30.6671,-87.9365,6.266,0.05,1111122 
DISL,ioos:station:DISL:MHPA:1,2009-04-02T22:00:00Z,30.6671,-87.9365,6.194,0.05,1111122 
DISL,ioos:station:DISL:MHPA:1,2009-04-02T22:30:00Z,30.6671,-87.9365,6.163,0.05,1111122 
DISL,ioos:station:DISL:MHPA:1,2009-04-02T23:00:00Z,30.6671,-87.9365,6.134,0.05,1111122 
DISL,ioos:station:DISL:MHPA:1,2009-04-02T23:30:00Z,30.6671,-87.9365,6.026,0.05,1111122 
DISL,ioos:station:DISL:MHPA:1,2009-04-03T00:00:00Z,30.6671,-87.9365,6.095,0.05,1111122 
DISL,ioos:station:DISL:MHPA:1,2009-04-03T00:30:00Z,30.6671,-87.9365,6.163,0.05,1111122 
DISL,ioos:station:DISL:MHPA:1,2009-04-03T01:00:00Z,30.6671,-87.9365,6.127,0.05,1111122 
DISL,ioos:station:DISL:MHPA:1,2009-04-03T01:30:00Z,30.6671,-87.9365,5.985,0.05,1111122 
DISL,ioos:station:DISL:MHPA:1,2009-04-03T02:00:00Z,30.6671,-87.9365,5.713,0.05,1111122 
DISL,ioos:station:DISL:MHPA:1,2009-04-03T02:30:00Z,30.6671,-87.9365,5.499,0.05,1111122 
DISL,ioos:station:DISL:MHPA:1,2009-04-03T03:00:00Z,30.6671,-87.9365,5.27,0.05,1111122 
DISL,ioos:station:DISL:MHPA:1,2009-04-03T03:30:00Z,30.6671,-87.9365,5.129,0.05,1111122 
DISL,ioos:station:DISL:MHPA:1,2009-04-03T04:00:00Z,30.6671,-87.9365,4.97,0.05,1111122 
DISL,ioos:station:DISL:MHPA:1,2009-04-03T04:30:00Z,30.6671,-87.9365,4.891,0.05,1111122 
DISL,ioos:station:DISL:MHPA:1,2009-04-03T05:00:00Z,30.6671,-87.9365,4.878,0.05,1111122 
DISL,ioos:station:DISL:MHPA:1,2009-04-03T05:30:00Z,30.6671,-87.9365,4.808,0.05,1111122 
DISL,ioos:station:DISL:MHPA:1,2009-04-03T06:00:00Z,30.6671,-87.9365,4.703,0.05,1111122 
DISL,ioos:station:DISL:MHPA:1,2009-04-03T06:30:00Z,30.6671,-87.9365,4.563,0.05,1111122 
DISL,ioos:station:DISL:MHPA:1,2009-04-03T07:00:00Z,30.6671,-87.9365,4.403,0.05,1111122 
DISL,ioos:station:DISL:MHPA:1,2009-04-03T07:30:00Z,30.6671,-87.9365,4.235,0.05,1111122 
DISL,ioos:station:DISL:MHPA:1,2009-04-03T08:00:00Z,30.6671,-87.9365,4.114,0.05,1111122 
DISL,ioos:station:DISL:MHPA:1,2009-04-03T08:30:00Z,30.6671,-87.9365,4.016,0.05,1111122 
DISL,ioos:station:DISL:MHPA:1,2009-04-03T09:00:00Z,30.6671,-87.9365,3.946,0.05,1111122 
DISL,ioos:station:DISL:MHPA:1,2009-04-03T09:30:00Z,30.6671,-87.9365,3.888,0.05,1111122 
DISL,ioos:station:DISL:MHPA:1,2009-04-03T10:00:00Z,30.6671,-87.9365,3.755,0.05,1111122 
DISL,ioos:station:DISL:MHPA:1,2009-04-03T10:30:00Z,30.6671,-87.9365,3.667,0.05,1111122 
DISL,ioos:station:DISL:MHPA:1,2009-04-03T11:00:00Z,30.6671,-87.9365,3.648,0.05,1111122 
DISL,ioos:station:DISL:MHPA:1,2009-04-03T11:30:00Z,30.6671,-87.9365,3.588,0.05,1111122 
DISL,ioos:station:DISL:MHPA:1,2009-04-03T12:00:00Z,30.6671,-87.9365,3.553,0.06,1111122 
DISL,ioos:station:DISL:MHPA:1,2009-04-03T12:30:00Z,30.6671,-87.9365,3.528,0.06,1111122 
DISL,ioos:station:DISL:MHPA:1,2009-04-03T13:00:00Z,30.6671,-87.9365,3.508,0.05,1111122 
DISL,ioos:station:DISL:MHPA:1,2009-04-03T13:30:00Z,30.6671,-87.9365,3.473,0.05,1111122 
DISL,ioos:station:DISL:MHPA:1,2009-04-03T14:00:00Z,30.6671,-87.9365,3.435,0.05,1111122 
DISL,ioos:station:DISL:MHPA:1,2009-04-03T14:30:00Z,30.6671,-87.9365,3.454,0.06,1111122 
DISL,ioos:station:DISL:MHPA:1,2009-04-03T15:00:00Z,30.6671,-87.9365,3.529,0.06,1111122 
DISL,ioos:station:DISL:MHPA:1,2009-04-03T15:30:00Z,30.6671,-87.9365,3.589,0.06,1111122 
DISL,ioos:station:DISL:MHPA:1,2009-04-03T16:00:00Z,30.6671,-87.9365,3.703,0.05,1111122 
DISL,ioos:station:DISL:MHPA:1,2009-04-03T16:30:00Z,30.6671,-87.9365,3.805,0.05,1111122 
DISL,ioos:station:DISL:MHPA:1,2009-04-03T17:00:00Z,30.6671,-87.9365,3.944,0.05,1111122 
DISL,ioos:station:DISL:MHPA:1,2009-04-03T17:30:00Z,30.6671,-87.9365,4.097,0.05,1111122 
DISL,ioos:station:DISL:MHPA:1,2009-04-03T18:00:00Z,30.6671,-87.9365,4.18,0.05,1111122 
DISL,ioos:station:DISL:MHPA:1,2009-04-03T18:30:00Z,30.6671,-87.9365,4.282,0.05,1111122 
DISL,ioos:station:DISL:MHPA:1,2009-04-03T19:00:00Z,30.6671,-87.9365,4.417,0.05,1111122 
DISL,ioos:station:DISL:MHPA:1,2009-04-03T19:30:00Z,30.6671,-87.9365,4.55,0.05,1111122 
DISL,ioos:station:DISL:MHPA:1,2009-04-03T20:00:00Z,30.6671,-87.9365,4.632,0.05,1111122 
DISL,ioos:station:DISL:MHPA:1,2009-04-03T20:30:00Z,30.6671,-87.9365,4.735,0.05,1111122 
DISL,ioos:station:DISL:MHPA:1,2009-04-03T21:00:00Z,30.6671,-87.9365,4.853,0.05,1111122 
DISL,ioos:station:DISL:MHPA:1,2009-04-03T21:30:00Z,30.6671,-87.9365,4.98,0.05,1111122 
DISL,ioos:station:DISL:MHPA:1,2009-04-03T22:00:00Z,30.6671,-87.9365,5.006,0.05,1111122 
DISL,ioos:station:DISL:MHPA:1,2009-04-03T22:30:00Z,30.6671,-87.9365,5.101,0.05,1111122 
DISL,ioos:station:DISL:MHPA:1,2009-04-03T23:00:00Z,30.6671,-87.9365,5.11,0.05,1111122 
DISL,ioos:station:DISL:MHPA:1,2009-04-03T23:30:00Z,30.6671,-87.9365,5.159,0.05,1111122 
DISL,ioos:station:DISL:MHPA:1,2009-04-04T00:00:00Z,30.6671,-87.9365,5.174,0.05,1111122 
DISL,ioos:station:DISL:MHPA:1,2009-04-04T00:30:00Z,30.6671,-87.9365,5.123,0.05,1111122 
DISL,ioos:station:DISL:MHPA:1,2009-04-04T01:00:00Z,30.6671,-87.9365,5.002,0.05,1111122 
DISL,ioos:station:DISL:MHPA:1,2009-04-04T01:30:00Z,30.6671,-87.9365,4.959,0.05,1111122 
DISL,ioos:station:DISL:MHPA:1,2009-04-04T02:00:00Z,30.6671,-87.9365,4.855,0.05,1111122 
DISL,ioos:station:DISL:MHPA:1,2009-04-04T02:30:00Z,30.6671,-87.9365,4.775,0.05,1111122 
DISL,ioos:station:DISL:MHPA:1,2009-04-04T03:00:00Z,30.6671,-87.9365,4.709,0.05,1111122 
DISL,ioos:station:DISL:MHPA:1,2009-04-04T03:30:00Z,30.6671,-87.9365,4.602,0.05,1111122 
DISL,ioos:station:DISL:MHPA:1,2009-04-04T04:00:00Z,30.6671,-87.9365,4.526,0.05,1111122 
DISL,ioos:station:DISL:MHPA:1,2009-04-04T04:30:00Z,30.6671,-87.9365,4.436,0.05,1111122 
DISL,ioos:station:DISL:MHPA:1,2009-04-04T05:00:00Z,30.6671,-87.9365,4.336,0.05,1111122 
DISL,ioos:station:DISL:MHPA:1,2009-04-04T05:30:00Z,30.6671,-87.9365,4.242,0.05,1111122 
DISL,ioos:station:DISL:MHPA:1,2009-04-04T06:00:00Z,30.6671,-87.9365,4.14,0.05,1111122 
DISL,ioos:station:DISL:MHPA:1,2009-04-04T06:30:00Z,30.6671,-87.9365,4.046,0.05,1111122 
DISL,ioos:station:DISL:MHPA:1,2009-04-04T07:00:00Z,30.6671,-87.9365,3.937,0.05,1111122 
DISL,ioos:station:DISL:MHPA:1,2009-04-04T07:30:00Z,30.6671,-87.9365,3.823,0.05,1111122 
DISL,ioos:station:DISL:MHPA:1,2009-04-04T08:00:00Z,30.6671,-87.9365,3.716,0.05,1111122 
DISL,ioos:station:DISL:MHPA:1,2009-04-04T08:30:00Z,30.6671,-87.9365,3.62,0.05,1111122 
DISL,ioos:station:DISL:MHPA:1,2009-04-04T09:00:00Z,30.6671,-87.9365,3.56,0.05,1111122 
DISL,ioos:station:DISL:MHPA:1,2009-04-04T09:30:00Z,30.6671,-87.9365,3.509,0.05,1111122 
DISL,ioos:station:DISL:MHPA:1,2009-04-04T10:00:00Z,30.6671,-87.9365,3.488,0.05,1111122 
DISL,ioos:station:DISL:MHPA:1,2009-04-04T10:30:00Z,30.6671,-87.9365,3.452,0.05,1111122 
DISL,ioos:station:DISL:MHPA:1,2009-04-04T11:00:00Z,30.6671,-87.9365,3.412,0.05,1111122 
DISL,ioos:station:DISL:MHPA:1,2009-04-04T11:30:00Z,30.6671,-87.9365,3.377,0.05,1111122 
DISL,ioos:station:DISL:MHPA:1,2009-04-04T12:00:00Z,30.6671,-87.9365,3.336,0.05,1111122 
DISL,ioos:station:DISL:MHPA:1,2009-04-04T12:30:00Z,30.6671,-87.9365,3.304,0.05,1111122 
DISL,ioos:station:DISL:MHPA:1,2009-04-04T13:00:00Z,30.6671,-87.9365,3.269,0.05,1111122 
DISL,ioos:station:DISL:MHPA:1,2009-04-04T13:30:00Z,30.6671,-87.9365,3.255,0.05,1111122 
DISL,ioos:station:DISL:MHPA:1,2009-04-04T14:00:00Z,30.6671,-87.9365,3.285,0.05,1111122 
DISL,ioos:station:DISL:MHPA:1,2009-04-04T14:30:00Z,30.6671,-87.9365,3.394,0.05,1111122 
DISL,ioos:station:DISL:MHPA:1,2009-04-04T15:00:00Z,30.6671,-87.9365,3.51,0.05,1111122 
DISL,ioos:station:DISL:MHPA:1,2009-04-04T15:30:00Z,30.6671,-87.9365,3.58,0.05,1111122 
DISL,ioos:station:DISL:MHPA:1,2009-04-04T16:00:00Z,30.6671,-87.9365,3.687,0.05,1111122 
DISL,ioos:station:DISL:MHPA:1,2009-04-04T16:30:00Z,30.6671,-87.9365,3.77,0.05,1111122 
DISL,ioos:station:DISL:MHPA:1,2009-04-04T17:00:00Z,30.6671,-87.9365,3.893,0.05,1111122 
DISL,ioos:station:DISL:MHPA:1,2009-04-04T17:30:00Z,30.6671,-87.9365,4.002,0.05,1111122 
DISL,ioos:station:DISL:MHPA:1,2009-04-04T18:00:00Z,30.6671,-87.9365,4.18,0.05,1111122 
DISL,ioos:station:DISL:MHPA:1,2009-04-04T18:30:00Z,30.6671,-87.9365,4.232,0.06,1111122 
DISL,ioos:station:DISL:MHPA:1,2009-04-04T19:00:00Z,30.6671,-87.9365,4.353,0.05,1111122 
DISL,ioos:station:DISL:MHPA:1,2009-04-04T19:30:00Z,30.6671,-87.9365,4.547,0.05,1111122 
DISL,ioos:station:DISL:MHPA:1,2009-04-04T20:00:00Z,30.6671,-87.9365,4.64,0.05,1111122 
DISL,ioos:station:DISL:MHPA:1,2009-04-04T20:30:00Z,30.6671,-87.9365,4.664,0.05,1111122 
DISL,ioos:station:DISL:MHPA:1,2009-04-04T21:00:00Z,30.6671,-87.9365,4.627,0.05,1111122 
DISL,ioos:station:DISL:MHPA:1,2009-04-04T21:30:00Z,30.6671,-87.9365,4.684,0.05,1111122 
DISL,ioos:station:DISL:MHPA:1,2009-04-04T22:00:00Z,30.6671,-87.9365,4.704,0.05,1111122 
DISL,ioos:station:DISL:MHPA:1,2009-04-04T22:30:00Z,30.6671,-87.9365,4.726,0.05,1111122 
DISL,ioos:station:DISL:MHPA:1,2009-04-04T23:00:00Z,30.6671,-87.9365,4.737,0.05,1111122 
DISL,ioos:station:DISL:MHPA:1,2009-04-04T23:30:00Z,30.6671,-87.9365,4.799,0.05,1111122 
DISL,ioos:station:DISL:MHPA:1,2009-04-05T00:00:00Z,30.6671,-87.9365,4.854,0.05,1111122 
DISL,ioos:station:DISL:MHPA:1,2009-04-05T00:30:00Z,30.6671,-87.9365,4.893,0.05,1111122 
DISL,ioos:station:DISL:MHPA:1,2009-04-05T01:00:00Z,30.6671,-87.9365,4.861,0.05,1111122 
DISL,ioos:station:DISL:MHPA:1,2009-04-05T01:30:00Z,30.6671,-87.9365,4.825,0.05,1111122 
DISL,ioos:station:DISL:MHPA:1,2009-04-05T02:00:00Z,30.6671,-87.9365,4.784,0.05,1111122 
DISL,ioos:station:DISL:MHPA:1,2009-04-05T02:30:00Z,30.6671,-87.9365,4.734,0.05,1111122 
DISL,ioos:station:DISL:MHPA:1,2009-04-05T03:00:00Z,30.6671,-87.9365,4.677,0.05,1111122 
DISL,ioos:station:DISL:MHPA:1,2009-04-05T03:30:00Z,30.6671,-87.9365,4.648,0.05,1111122 
DISL,ioos:station:DISL:MHPA:1,2009-04-05T04:00:00Z,30.6671,-87.9365,4.6,0.05,1111122 
DISL,ioos:station:DISL:MHPA:1,2009-04-05T04:30:00Z,30.6671,-87.9365,4.551,0.05,1111122 
DISL,ioos:station:DISL:MHPA:1,2009-04-05T05:00:00Z,30.6671,-87.9365,4.487,0.05,1111122 
DISL,ioos:station:DISL:MHPA:1,2009-04-05T05:30:00Z,30.6671,-87.9365,4.447,0.05,1111122 
DISL,ioos:station:DISL:MHPA:1,2009-04-05T06:00:00Z,30.6671,-87.9365,4.325,0.05,1111122 
DISL,ioos:station:DISL:MHPA:1,2009-04-05T06:30:00Z,30.6671,-87.9365,4.258,0.05,1111122 
DISL,ioos:station:DISL:MHPA:1,2009-04-05T07:00:00Z,30.6671,-87.9365,4.216,0.05,1111122 
DISL,ioos:station:DISL:MHPA:1,2009-04-05T07:30:00Z,30.6671,-87.9365,4.139,0.05,1111122 
DISL,ioos:station:DISL:MHPA:1,2009-04-05T08:00:00Z,30.6671,-87.9365,4.072,0.05,1111122 
DISL,ioos:station:DISL:MHPA:1,2009-04-05T08:30:00Z,30.6671,-87.9365,4.029,0.05,1111122 
DISL,ioos:station:DISL:MHPA:1,2009-04-05T09:00:00Z,30.6671,-87.9365,3.965,0.05,1111122 
DISL,ioos:station:DISL:MHPA:1,2009-04-05T09:30:00Z,30.6671,-87.9365,3.957,0.05,1111122 
DISL,ioos:station:DISL:MHPA:1,2009-04-05T10:00:00Z,30.6671,-87.9365,3.934,0.05,1111122 
DISL,ioos:station:DISL:MHPA:1,2009-04-05T10:30:00Z,30.6671,-87.9365,3.897,0.05,1111122 
DISL,ioos:station:DISL:MHPA:1,2009-04-05T11:00:00Z,30.6671,-87.9365,3.873,0.05,1111122 
DISL,ioos:station:DISL:MHPA:1,2009-04-05T11:30:00Z,30.6671,-87.9365,3.833,0.05,1111122 
DISL,ioos:station:DISL:MHPA:1,2009-04-05T12:00:00Z,30.6671,-87.9365,3.794,0.05,1111122 
DISL,ioos:station:DISL:MHPA:1,2009-04-05T12:30:00Z,30.6671,-87.9365,3.784,0.05,1111122 
DISL,ioos:station:DISL:MHPA:1,2009-04-05T13:00:00Z,30.6671,-87.9365,3.782,0.05,1111122 
DISL,ioos:station:DISL:MHPA:1,2009-04-05T13:30:00Z,30.6671,-87.9365,3.806,0.05,1111122 
DISL,ioos:station:DISL:MHPA:1,2009-04-05T14:00:00Z,30.6671,-87.9365,3.842,0.05,1111122 
DISL,ioos:station:DISL:MHPA:1,2009-04-05T14:30:00Z,30.6671,-87.9365,3.909,0.05,1111122 
DISL,ioos:station:DISL:MHPA:1,2009-04-05T15:00:00Z,30.6671,-87.9365,4.033,0.05,1111122 
DISL,ioos:station:DISL:MHPA:1,2009-04-05T15:30:00Z,30.6671,-87.9365,4.116,0.05,1111122 
DISL,ioos:station:DISL:MHPA:1,2009-04-05T16:00:00Z,30.6671,-87.9365,4.222,0.05,1111122 
DISL,ioos:station:DISL:MHPA:1,2009-04-05T16:30:00Z,30.6671,-87.9365,4.284,0.05,1111122 
DISL,ioos:station:DISL:MHPA:1,2009-04-05T17:00:00Z,30.6671,-87.9365,4.294,0.05,1111122 
DISL,ioos:station:DISL:MHPA:1,2009-04-05T17:30:00Z,30.6671,-87.9365,4.398,0.05,1111122 
DISL,ioos:station:DISL:MHPA:1,2009-04-05T18:00:00Z,30.6671,-87.9365,4.474,0.05,1111122 
DISL,ioos:station:DISL:MHPA:1,2009-04-05T18:30:00Z,30.6671,-87.9365,4.597,0.05,1111122 
DISL,ioos:station:DISL:MHPA:1,2009-04-05T19:00:00Z,30.6671,-87.9365,4.649,0.05,1111122 
DISL,ioos:station:DISL:MHPA:1,2009-04-05T19:30:00Z,30.6671,-87.9365,4.715,0.05,1111122 
DISL,ioos:station:DISL:MHPA:1,2009-04-05T20:00:00Z,30.6671,-87.9365,4.792,0.05,1111122 
DISL,ioos:station:DISL:MHPA:1,2009-04-05T20:30:00Z,30.6671,-87.9365,4.748,0.05,1111122 
DISL,ioos:station:DISL:MHPA:1,2009-04-05T21:00:00Z,30.6671,-87.9365,4.77,0.05,1111122 
DISL,ioos:station:DISL:MHPA:1,2009-04-05T21:30:00Z,30.6671,-87.9365,4.812,0.05,1111122 
DISL,ioos:station:DISL:MHPA:1,2009-04-05T22:00:00Z,30.6671,-87.9365,4.848,0.05,1111122 
DISL,ioos:station:DISL:MHPA:1,2009-04-05T22:30:00Z,30.6671,-87.9365,4.766,0.05,1111122 
DISL,ioos:station:DISL:MHPA:1,2009-04-05T23:00:00Z,30.6671,-87.9365,4.793,0.05,1111122 
DISL,ioos:station:DISL:MHPA:1,2009-04-05T23:30:00Z,30.6671,-87.9365,4.805,0.05,1111122 
DISL,ioos:station:DISL:MHPA:1,2009-04-06T00:00:00Z,30.6671,-87.9365,4.808,0.05,1111122 
DISL,ioos:station:DISL:MHPA:1,2009-04-06T00:30:00Z,30.6671,-87.9365,4.787,0.05,1111122 
DISL,ioos:station:DISL:MHPA:1,2009-04-06T01:00:00Z,30.6671,-87.9365,4.806,0.05,1111122 
DISL,ioos:station:DISL:MHPA:1,2009-04-06T01:30:00Z,30.6671,-87.9365,4.839,0.05,1111122 
DISL,ioos:station:DISL:MHPA:1,2009-04-06T02:00:00Z,30.6671,-87.9365,4.857,0.05,1111122 
DISL,ioos:station:DISL:MHPA:1,2009-04-06T02:30:00Z,30.6671,-87.9365,4.841,0.05,1111122 
DISL,ioos:station:DISL:MHPA:1,2009-04-06T03:00:00Z,30.6671,-87.9365,4.817,0.05,1111122 
DISL,ioos:station:DISL:MHPA:1,2009-04-06T03:30:00Z,30.6671,-87.9365,4.799,0.05,1111122 
DISL,ioos:station:DISL:MHPA:1,2009-04-06T04:00:00Z,30.6671,-87.9365,4.797,0.05,1111122 
DISL,ioos:station:DISL:MHPA:1,2009-04-06T04:30:00Z,30.6671,-87.9365,4.769,0.05,1111122 
DISL,ioos:station:DISL:MHPA:1,2009-04-06T05:00:00Z,30.6671,-87.9365,4.724,0.05,1111122 
DISL,ioos:station:DISL:MHPA:1,2009-04-06T05:30:00Z,30.6671,-87.9365,4.655,0.05,1111122 
DISL,ioos:station:DISL:MHPA:1,2009-04-06T06:00:00Z,30.6671,-87.9365,4.54,0.05,1111122 
DISL,ioos:station:DISL:MHPA:1,2009-04-06T06:30:00Z,30.6671,-87.9365,4.367,0.05,1111122 
DISL,ioos:station:DISL:MHPA:1,2009-04-06T07:00:00Z,30.6671,-87.9365,4.25,0.05,1111122 
DISL,ioos:station:DISL:MHPA:1,2009-04-06T07:30:00Z,30.6671,-87.9365,4.077,0.05,1111122 
DISL,ioos:station:DISL:MHPA:1,2009-04-06T08:00:00Z,30.6671,-87.9365,3.912,0.05,1111122 
DISL,ioos:station:DISL:MHPA:1,2009-04-06T08:30:00Z,30.6671,-87.9365,3.781,0.05,1111122 
DISL,ioos:station:DISL:MHPA:1,2009-04-06T09:00:00Z,30.6671,-87.9365,3.64,0.05,1111122 
DISL,ioos:station:DISL:MHPA:1,2009-04-06T09:30:00Z,30.6671,-87.9365,3.536,0.05,1111122 
DISL,ioos:station:DISL:MHPA:1,2009-04-06T10:00:00Z,30.6671,-87.9365,3.406,0.05,1111122 
DISL,ioos:station:DISL:MHPA:1,2009-04-06T10:30:00Z,30.6671,-87.9365,3.313,0.05,1111122 
DISL,ioos:station:DISL:MHPA:1,2009-04-06T11:00:00Z,30.6671,-87.9365,3.277,0.05,1111122 
DISL,ioos:station:DISL:MHPA:1,2009-04-06T11:30:00Z,30.6671,-87.9365,3.147,0.05,1111122 
DISL,ioos:station:DISL:MHPA:1,2009-04-06T12:00:00Z,30.6671,-87.9365,3.029,0.05,1111122 
DISL,ioos:station:DISL:MHPA:1,2009-04-06T12:30:00Z,30.6671,-87.9365,2.931,0.05,1111122 
DISL,ioos:station:DISL:MHPA:1,2009-04-06T13:00:00Z,30.6671,-87.9365,2.87,0.05,1111122 
DISL,ioos:station:DISL:MHPA:1,2009-04-06T13:30:00Z,30.6671,-87.9365,2.872,0.05,1111122 
DISL,ioos:station:DISL:MHPA:1,2009-04-06T14:00:00Z,30.6671,-87.9365,2.876,0.05,1111122 
DISL,ioos:station:DISL:MHPA:1,2009-04-06T14:30:00Z,30.6671,-87.9365,2.832,0.05,1111122 
DISL,ioos:station:DISL:MHPA:1,2009-04-06T15:00:00Z,30.6671,-87.9365,2.855,0.05,1111122 
DISL,ioos:station:DISL:MHPA:1,2009-04-06T15:30:00Z,30.6671,-87.9365,2.834,0.05,1111122 